Tracking 25710 objects as of 6-Jul-2022
HD Live streaming from Space Station
objects crossing your sky now

FENGYUN 1C DEB

Track FENGYUN 1C DEB now!
10-day predictions


NORAD ID: 32198
Int'l Code: 1999-025CUU
Perigee: 834.1 km
Apogee: 977.9 km
Inclination: 98.4 °
Period: 103.0 minutes
Semi major axis: 7276 km
RCS: 0.0075 m2 (small)
Launch date: May 10, 1999
Source: People's Republic of China (PRC)
Launch site: Taiyaun Space Center, China (TSC)

Note: This is SATELLITE DEBRIS
aabbcc
Your satellite tracking list
Your tracking list is empty




NASA's NSSDC Master Catalog

Two Line Element Set (TLE):
1 32198U 99025CUU 22186.43990548  .00001369  00000-0  94261-3 0  9993
2 32198  98.3508  63.2447 0098779 254.7994 104.2231 13.98540158393309
Source of the keplerian elements: AFSPC